�N����,����,�~����,�C��,���x,�C��,����,���ϕ���,�ő�u�ԕ���,�ő厞����,���˗�,�I�_���x,�n�����x,�ő啗���N��,DTYPE
"23/04/20","00:10",0.0,15.2,95.5,1007.1,297.6,1.0,1.8,320.7,0.00,14.5,15.9,"00:09:30",1
"23/04/20","00:20",0.0,15.0,95.6,1007.1,323.3,1.6,1.9,331.1,0.00,14.3,15.9,"00:13:34",1
"23/04/20","00:30",0.0,15.0,95.7,1007.4,318.1,1.5,2.0,321.7,0.00,14.4,15.6,"00:25:34",1
"23/04/20","00:40",0.0,14.9,95.8,1007.6,311.5,1.3,1.9,316.3,0.00,14.3,16.0,"00:34:48",1
"23/04/20","00:50",0.0,14.7,96.0,1007.4,280.7,0.6,1.3,306.3,0.00,14.1,15.7,"00:40:16",1
"23/04/20","01:00",0.0,14.9,96.2,1007.6,291.6,1.2,1.8,319.0,0.00,14.3,15.7,"00:58:42",1
"23/04/20","01:10",0.0,15.0,96.2,1007.8,331.4,1.5,2.1,338.2,0.00,14.4,15.7,"01:01:14",1
"23/04/20","01:20",0.0,14.9,96.3,1007.4,330.6,1.8,2.1,333.5,0.00,14.4,15.5,"01:11:56",1
"23/04/20","01:30",0.0,14.9,96.4,1007.6,263.7,1.2,1.7,253.7,0.00,14.4,15.8,"01:28:08",1
"23/04/20","01:40",0.0,15.0,96.4,1007.6,290.6,1.3,1.8,315.5,0.00,14.5,15.5,"01:34:56",1
"23/04/20","01:50",0.0,14.9,96.5,1007.4,318.0,0.7,1.6,323.9,0.00,14.4,15.8,"01:40:32",1
"23/04/20","02:00",0.0,14.9,96.6,1007.8,302.3,1.1,2.1,315.9,0.00,14.4,15.5,"01:59:50",1
"23/04/20","02:10",0.0,15.0,96.7,1007.6,325.1,1.3,2.4,314.7,0.00,14.5,15.5,"02:01:02",1
"23/04/20","02:20",0.0,15.2,96.8,1007.8,327.2,1.2,1.8,313.0,0.00,14.7,15.5,"02:19:30",1
"23/04/20","02:30",0.0,15.1,96.8,1007.6,284.1,1.0,2.1,317.4,0.00,14.6,15.5,"02:20:08",1
"23/04/20","02:40",0.0,15.2,96.9,1007.8,289.5,0.6,1.1,267.2,0.00,14.8,15.5,"02:30:32",1
"23/04/20","02:50",0.0,15.2,96.9,1007.8,289.0,0.7,1.0,298.7,0.00,14.8,15.6,"02:44:08",1
"23/04/20","03:00",0.0,15.3,97.0,1007.6,313.1,1.0,1.3,311.6,0.00,14.9,15.7,"02:55:52",1
"23/04/20","03:10",0.0,15.3,97.0,1007.4,323.5,1.6,2.2,325.2,0.00,14.9,15.4,"03:03:54",1
"23/04/20","03:20",0.0,15.3,97.0,1007.6,285.9,1.0,1.2,275.1,0.00,14.9,15.4,"03:19:36",1
"23/04/20","03:30",0.0,15.3,97.1,1006.9,290.8,0.8,1.4,315.3,0.00,14.9,15.3,"03:20:02",1
"23/04/20","03:40",0.0,15.4,97.2,1006.9,328.2,1.3,2.0,332.5,0.00,15.0,15.4,"03:38:08",1
"23/04/20","03:50",0.0,15.5,97.2,1007.1,308.3,1.3,1.8,335.6,0.00,15.1,15.5,"03:40:24",1
"23/04/20","04:00",0.0,15.5,97.2,1007.1,304.2,1.5,1.9,314.1,0.00,15.1,15.5,"03:59:12",1
"23/04/20","04:10",0.0,15.5,97.3,1006.9,303.9,1.2,1.6,313.8,0.00,15.1,15.3,"04:07:44",1
"23/04/20","04:20",0.0,15.6,97.3,1007.1,292.3,1.2,1.7,284.2,0.00,15.2,15.4,"04:19:12",1
"23/04/20","04:30",0.0,15.5,97.3,1007.1,311.6,0.6,1.4,301.5,0.00,15.1,15.3,"04:21:20",1
"23/04/20","04:40",0.0,15.6,97.4,1007.1,289.7,0.8,1.3,315.9,0.00,15.2,15.5,"04:36:16",1
"23/04/20","04:50",0.0,15.6,97.4,1007.4,297.0,1.1,1.3,312.1,0.00,15.2,15.4,"04:45:36",1
"23/04/20","05:00",0.0,15.7,97.4,1007.6,276.0,1.1,1.3,291.2,0.00,15.3,15.3,"04:50:08",1
"23/04/20","05:10",0.0,15.7,97.5,1007.6,310.1,0.8,1.8,324.6,0.00,15.3,15.4,"05:01:20",1
"23/04/20","05:20",0.0,15.7,97.5,1007.4,332.3,1.0,1.6,321.4,0.00,15.3,15.2,"05:17:04",1
"23/04/20","05:30",0.0,15.7,97.5,1007.4,316.2,1.2,1.6,314.8,0.00,15.3,15.2,"05:21:28",1
"23/04/20","05:40",0.0,15.7,97.6,1007.6,307.0,1.5,2.1,329.1,0.00,15.4,15.4,"05:31:04",1
"23/04/20","05:50",0.0,15.5,97.6,1007.8,316.4,2.1,2.9,337.8,0.00,15.2,15.2,"05:42:48",1
"23/04/20","06:00",0.0,15.5,97.6,1007.4,316.7,1.7,2.1,316.1,0.00,15.2,15.4,"05:55:36",1
"23/04/20","06:10",0.0,15.5,97.6,1007.6,314.3,1.5,2.1,328.3,0.00,15.2,15.2,"06:05:52",1
"23/04/20","06:20",0.0,15.5,97.6,1007.4,297.6,1.2,2.1,326.8,0.00,15.2,15.2,"06:10:56",1
"23/04/20","06:30",0.0,15.6,97.7,1007.4,294.3,1.2,1.8,330.3,0.00,15.3,15.3,"06:26:00",1
"23/04/20","06:40",0.0,15.6,97.7,1007.8,290.6,1.2,1.6,301.3,0.00,15.3,15.1,"06:30:16",1
"23/04/20","06:50",0.0,15.6,97.7,1007.6,323.0,1.6,1.9,337.4,0.00,15.3,15.3,"06:41:12",1
"23/04/20","07:00",0.0,15.7,97.7,1007.8,323.3,1.3,2.0,332.8,0.00,15.4,15.3,"06:50:24",1
"23/04/20","07:10",0.0,15.8,97.7,1007.8,308.9,1.1,1.4,313.4,0.00,15.5,15.2,"07:01:44",1
"23/04/20","07:20",0.0,15.9,97.7,1007.6,307.1,1.1,1.7,315.0,0.00,15.6,15.3,"07:14:40",1
"23/04/20","07:30",0.0,16.1,97.7,1007.6,311.0,0.8,1.4,322.8,0.00,15.8,15.3,"07:20:24",1
"23/04/20","07:40",0.0,16.3,97.6,1007.6,290.1,0.8,1.6,314.0,0.01,16.0,15.3,"07:39:36",1
"23/04/20","07:50",0.0,16.3,97.6,1007.8,308.3,1.3,1.6,317.1,0.02,16.0,15.2,"07:42:56",1
"23/04/20","08:00",0.0,16.4,97.6,1007.4,297.3,1.2,1.7,309.0,0.03,16.1,15.4,"07:50:24",1
"23/04/20","08:10",0.0,16.6,97.5,1007.8,298.6,0.6,1.2,321.3,0.05,16.2,15.3,"08:04:16",1
"23/04/20","08:20",0.0,16.7,97.4,1007.8,273.7,0.6,1.2,314.3,0.06,16.3,15.3,"08:11:04",1
"23/04/20","08:30",0.0,17.0,97.4,1007.8,294.2,0.6,1.0,252.1,0.06,16.6,15.4,"08:21:44",1
"23/04/20","08:40",0.0,17.1,97.4,1007.6,346.9,0.7,1.8,331.1,0.07,16.7,15.5,"08:36:00",1
"23/04/20","08:50",0.0,17.0,97.1,1007.8,98.9,0.6,1.3,106.3,0.08,16.6,15.3,"08:47:20",1
"23/04/20","09:00",0.0,17.3,97.0,1008.1,155.9,0.5,1.0,121.2,0.11,16.9,15.5,"08:54:08",1
"23/04/20","09:10",0.0,17.8,96.8,1007.4,171.7,0.8,2.1,203.4,0.23,17.3,15.6,"09:00:02",1
"23/04/20","09:20",0.0,18.4,96.1,1007.8,160.7,1.0,2.0,116.7,0.34,17.8,15.5,"09:12:40",1
"23/04/20","09:30",0.0,19.1,95.3,1007.8,208.3,0.8,2.5,148.6,0.39,18.4,15.6,"09:22:16",1
"23/04/20","09:40",0.0,19.0,94.2,1007.4,161.6,1.3,2.6,107.8,0.38,18.1,15.5,"09:34:40",1
"23/04/20","09:50",0.0,19.3,93.1,1007.6,188.4,1.1,2.1,126.9,0.34,18.2,15.6,"09:44:08",1
"23/04/20","10:00",0.0,19.5,91.3,1006.7,115.2,0.8,2.5,120.6,0.20,18.1,15.8,"09:54:32",1
"23/04/20","10:10",0.0,19.9,89.3,1007.1,351.4,1.0,2.6,3.8,0.22,18.1,15.6,"10:06:40",1
"23/04/20","10:20",0.0,19.8,86.1,1006.9,95.8,1.1,2.5,95.5,0.20,17.4,15.8,"10:10:24",1
"23/04/20","10:30",0.0,20.7,83.6,1006.2,345.4,0.6,1.7,346.4,0.34,17.9,15.7,"10:27:52",1
"23/04/20","10:40",0.0,21.2,81.5,1006.4,74.4,1.1,2.4,43.0,0.39,17.9,15.9,"10:34:48",1
"23/04/20","10:50",0.0,21.5,78.8,1006.0,127.3,1.5,3.3,116.2,0.44,17.7,15.9,"10:49:12",1
"23/04/20","11:00",0.0,22.0,77.9,1006.0,126.6,1.3,2.8,122.9,0.46,18.0,16.1,"10:53:20",1
"23/04/20","11:10",0.0,23.1,76.3,1005.7,178.7,1.0,2.7,207.0,0.53,18.7,15.9,"11:00:16",1
"23/04/20","11:20",0.0,23.0,72.6,1005.2,147.0,1.6,3.4,102.0,0.55,17.9,16.1,"11:11:04",1
"23/04/20","11:30",0.0,22.9,72.4,1005.2,150.5,1.7,3.4,214.5,0.49,17.7,16.3,"11:22:00",1
"23/04/20","11:40",0.0,22.9,71.0,1005.0,24.7,1.3,2.6,109.9,0.43,17.4,16.4,"11:30:56",1
"23/04/20","11:50",0.0,23.8,70.6,1004.8,261.6,1.0,3.2,123.6,0.50,18.2,16.6,"11:49:28",1
"23/04/20","12:00",0.0,23.5,70.8,1004.8,132.0,2.5,4.9,132.0,0.56,17.9,16.7,"11:50:32",1
"23/04/20","12:10",0.0,24.1,69.8,1004.3,131.4,1.2,2.7,112.9,0.57,18.3,16.7,"12:01:12",1
"23/04/20","12:20",0.0,24.6,68.7,1004.1,186.3,1.6,3.5,123.1,0.58,18.5,16.8,"12:10:24",1
"23/04/20","12:30",0.0,24.6,66.9,1003.8,143.9,1.8,3.3,132.8,0.58,18.1,16.9,"12:26:32",1
"23/04/20","12:40",0.0,25.0,65.9,1003.4,142.0,1.3,3.7,120.5,0.58,18.2,17.0,"12:38:16",1
"23/04/20","12:50",0.0,25.1,65.0,1003.4,119.7,1.7,5.1,126.2,0.58,18.1,17.2,"12:40:24",1
"23/04/20","13:00",0.0,25.2,65.3,1003.8,109.3,1.5,3.2,116.6,0.55,18.3,17.3,"12:52:32",1
"23/04/20","13:10",0.0,25.5,63.0,1003.6,64.7,1.7,3.2,19.0,0.57,18.0,17.3,"13:07:04",1
"23/04/20","13:20",0.0,26.1,62.3,1003.6,15.3,1.3,3.6,3.4,0.57,18.4,17.3,"13:15:12",1
"23/04/20","13:30",0.0,26.4,61.0,1003.4,115.9,1.5,3.7,114.6,0.57,18.3,17.6,"13:26:56",1
"23/04/20","13:40",0.0,26.4,59.7,1003.1,35.7,1.7,3.6,5.4,0.57,18.0,17.8,"13:32:48",1
"23/04/20","13:50",0.0,26.4,60.4,1002.6,12.6,1.8,4.0,345.3,0.55,18.2,17.9,"13:42:32",1
"23/04/20","14:00",0.0,26.8,59.2,1002.9,8.1,1.3,2.8,0.7,0.54,18.2,18.1,"13:50:24",1
"23/04/20","14:10",0.0,27.1,56.4,1002.9,32.4,1.2,3.5,13.8,0.53,17.7,18.2,"14:08:24",1
"23/04/20","14:20",0.0,26.9,56.5,1003.1,131.3,1.8,4.3,114.1,0.52,17.6,18.1,"14:13:52",1
"23/04/20","14:30",0.0,27.8,56.6,1002.9,182.7,0.8,2.5,115.7,0.50,18.4,18.5,"14:21:52",1
"23/04/20","14:40",0.0,28.1,53.8,1003.1,36.2,1.0,2.0,7.7,0.49,17.9,18.6,"14:35:52",1
"23/04/20","14:50",0.0,28.2,52.8,1003.1,87.1,1.1,2.4,121.8,0.46,17.7,18.6,"14:41:20",1
"23/04/20","15:00",0.0,28.3,53.7,1002.9,128.3,1.1,2.8,119.0,0.41,18.1,18.6,"14:52:24",1
"23/04/20","15:10",0.0,28.2,51.2,1002.9,144.2,1.7,4.5,114.9,0.41,17.2,18.8,"15:08:48",1
"23/04/20","15:20",0.0,28.0,52.1,1002.4,128.8,1.6,3.6,122.7,0.40,17.3,18.9,"15:14:48",1
"23/04/20","15:30",0.0,28.2,49.5,1002.4,196.8,2.2,4.2,232.0,0.38,16.7,18.9,"15:26:48",1
"23/04/20","15:40",0.0,28.5,48.5,1002.2,158.6,1.3,4.5,222.5,0.37,16.6,19.2,"15:30:24",1
"23/04/20","15:50",0.0,28.7,47.7,1002.2,170.2,1.3,3.1,194.2,0.35,16.6,19.2,"15:49:04",1
"23/04/20","16:00",0.0,28.6,45.0,1001.7,186.0,1.3,2.6,198.4,0.32,15.6,19.2,"15:50:08",1
"23/04/20","16:10",0.0,29.0,44.9,1001.5,76.7,0.7,2.5,114.9,0.30,15.9,19.2,"16:08:56",1
"23/04/20","16:20",0.0,29.0,42.6,1001.7,245.9,1.3,3.3,223.3,0.28,15.1,19.3,"16:19:04",1
"23/04/20","16:30",0.0,29.0,43.5,1001.5,298.8,1.2,3.3,226.0,0.26,15.4,19.3,"16:22:32",1
"23/04/20","16:40",0.0,28.9,43.4,1001.2,145.0,1.6,3.2,165.4,0.23,15.3,19.5,"16:38:00",1
"23/04/20","16:50",0.0,29.0,44.9,1001.0,218.3,1.3,3.2,230.5,0.21,15.9,19.2,"16:45:52",1
"23/04/20","17:00",0.0,29.0,45.9,1000.3,282.5,1.1,3.6,359.4,0.18,16.2,19.3,"16:52:32",1
"23/04/20","17:10",0.0,29.2,46.6,1000.5,262.0,0.8,2.4,352.4,0.16,16.6,19.4,"17:02:48",1
"23/04/20","17:20",0.0,28.7,46.1,1000.8,344.8,1.5,4.0,331.1,0.14,16.0,19.7,"17:13:04",1
"23/04/20","17:30",0.0,28.1,48.0,1000.0,253.7,1.3,3.1,235.9,0.11,16.1,19.5,"17:24:56",1
"23/04/20","17:40",0.0,27.7,48.3,1000.3,277.1,1.7,4.0,327.6,0.10,15.8,19.4,"17:39:44",1
"23/04/20","17:50",0.0,27.4,49.5,1000.3,290.2,2.0,4.2,320.7,0.08,15.9,19.6,"17:41:12",1
"23/04/20","18:00",0.0,27.2,50.7,1000.5,274.2,1.7,3.1,282.1,0.06,16.1,19.7,"17:52:24",1
"23/04/20","18:10",0.0,26.9,51.4,1000.8,258.3,1.7,3.7,238.9,0.04,16.1,19.4,"18:02:24",1
"23/04/20","18:20",0.0,26.5,54.3,1000.8,252.8,1.7,3.4,256.1,0.03,16.6,19.5,"18:12:16",1
"23/04/20","18:30",0.0,26.0,57.1,1001.2,242.7,1.7,3.3,246.1,0.02,16.9,19.6,"18:23:52",1
"23/04/20","18:40",0.0,25.2,59.7,1001.5,228.2,1.7,3.6,239.3,0.01,16.8,19.6,"18:30:24",1
"23/04/20","18:50",0.0,24.5,60.2,1001.5,254.3,1.0,2.6,260.4,0.00,16.3,19.4,"18:40:56",1
"23/04/20","19:00",0.0,24.2,61.0,1001.7,313.2,1.1,2.9,277.3,0.00,16.2,19.4,"18:56:32",1
"23/04/20","19:10",0.0,23.5,63.2,1002.2,340.8,2.7,4.7,350.6,0.00,16.1,19.3,"19:00:48",1
"23/04/20","19:20",0.0,23.1,65.0,1002.4,337.6,2.5,4.2,324.7,0.00,16.2,19.3,"19:17:52",1
"23/04/20","19:30",0.0,22.7,66.2,1002.4,337.0,2.1,4.1,351.1,0.00,16.1,19.5,"19:20:56",1
"23/04/20","19:40",0.0,22.3,67.4,1002.9,30.5,0.8,1.4,353.5,0.00,16.0,19.4,"19:37:04",1
"23/04/20","19:50",0.0,22.0,68.2,1003.4,352.1,1.1,2.2,332.2,0.00,15.9,19.2,"19:46:56",1
"23/04/20","20:00",0.0,21.8,68.6,1003.4,14.8,0.6,1.6,37.8,0.00,15.8,19.3,"19:53:52",1
"23/04/20","20:10",0.0,21.7,69.6,1003.8,353.6,1.2,2.2,344.5,0.00,15.9,19.1,"20:05:28",1
"23/04/20","20:20",0.0,21.1,71.3,1003.8,352.8,1.2,2.2,349.3,0.00,15.7,19.1,"20:14:48",1
"23/04/20","20:30",0.0,20.4,73.9,1003.8,339.8,1.5,2.0,342.2,0.00,15.6,19.1,"20:20:08",1
"23/04/20","20:40",0.0,19.9,76.8,1004.1,340.3,1.6,2.4,341.2,0.00,15.8,19.0,"20:31:52",1
"23/04/20","20:50",0.0,19.5,78.5,1004.1,344.4,1.7,2.7,345.0,0.00,15.7,18.8,"20:44:16",1
"23/04/20","21:00",0.0,19.5,79.0,1004.3,341.2,1.8,2.5,332.0,0.00,15.8,19.0,"20:51:52",1
"23/04/20","21:10",0.0,19.3,79.3,1004.3,340.7,2.2,4.0,339.2,0.00,15.7,18.6,"21:08:00",1
"23/04/20","21:20",0.0,19.0,80.2,1004.5,333.2,2.5,3.3,329.4,0.00,15.6,18.9,"21:10:32",1
"23/04/20","21:30",0.0,18.9,80.8,1004.8,324.9,2.2,2.8,339.8,0.00,15.6,18.6,"21:22:08",1
"23/04/20","21:40",0.0,18.7,81.4,1005.0,321.4,2.3,2.9,323.4,0.00,15.5,19.0,"21:33:20",1
"23/04/20","21:50",0.0,18.5,81.6,1005.0,313.2,2.0,3.5,344.0,0.00,15.3,18.7,"21:42:08",1
"23/04/20","22:00",0.0,18.6,81.2,1005.2,334.6,2.2,3.4,338.0,0.00,15.4,18.7,"21:50:16",1
"23/04/20","22:10",0.0,18.3,81.5,1005.5,275.4,0.3,2.1,319.3,0.00,15.1,18.5,"22:00:02",1
"23/04/20","22:20",0.0,18.0,82.2,1005.5,306.5,1.3,2.4,313.6,0.00,15.0,18.6,"22:16:08",1
"23/04/20","22:30",0.0,17.9,82.8,1005.7,323.0,1.6,2.1,328.1,0.00,15.0,18.3,"22:22:40",1
"23/04/20","22:40",0.0,17.7,83.8,1006.0,332.3,2.3,3.9,325.5,0.00,15.0,18.3,"22:38:32",1
"23/04/20","22:50",0.0,17.6,84.5,1005.7,317.2,2.7,4.0,331.2,0.00,15.0,18.3,"22:41:04",1
"23/04/20","23:00",0.0,17.6,85.0,1005.7,332.3,2.7,3.6,344.3,0.00,15.1,18.1,"22:55:36",1
"23/04/20","23:10",0.0,17.3,85.5,1005.7,329.2,2.1,3.6,331.7,0.00,14.9,18.2,"23:02:00",1
"23/04/20","23:20",0.0,17.1,86.1,1006.0,348.1,0.5,1.4,345.7,0.00,14.8,18.2,"23:11:36",1
"23/04/20","23:30",0.0,17.0,86.5,1006.2,324.8,0.8,1.7,265.8,0.00,14.8,18.2,"23:28:00",1
"23/04/20","23:40",0.0,16.8,86.9,1006.2,281.3,1.1,1.7,319.4,0.00,14.6,17.9,"23:38:48",1
"23/04/20","23:50",0.0,16.7,87.3,1006.2,296.9,1.3,1.7,289.4,0.00,14.6,18.1,"23:47:52",1
"23/04/20","24:00",0.0,16.7,87.6,1005.7,288.5,1.6,2.2,311.4,0.00,14.7,18.1,"23:52:56",1
